User: anonymous   Login
Location: ????
(55.2778°N, 39.2433°E)
Time: 12:43:36
(UTC+00:00)
Language:

Cosmos 1766 - Orbit

View from above orbital plane
View from above orbital plane
View from above satellite
View from above satellite

Ground track
Ground track

The orbit data is extracted from the following two-line orbital elements,

1 16881U 86055A   24174.08009963  .00008156  00000-0  33558-3 0  9998
2 16881  82.5002  26.9962 0010532 259.8339 100.1710 15.23940029 68747
Epoch (UTC): 22 June 2024 01:55:20
Eccentricity: 0.0010532
inclination: 82.5002°
perigee height: 487 km
apogee height: 501 km
right ascension of ascending node: 26.9962°
argument of perigee: 259.8339°
revolutions per day: 15.23940029
mean anomaly at epoch: 100.1710°
orbit number at epoch: 6874

The dashed part of the orbit path shows where the satellite is in the earth's shadow,  

DLR